CW8931 Weather Reports


time (UTC)temp
C
wind
direction
speed
KPH
gust
KPH
rain 1hr
cm
rain 24hr
cm
rain mn
cm
humidity
%
barometer
mb
20260504190004 28 0.0 0.0 0.00 0.00 0.00 51 1013.5
20260504185506 28 0.0 0.0 0.00 0.00 0.00 52 1013.6
20260504185007 28 0.0 0.0 0.00 0.00 0.00 52 1013.6
20260504184508 28 0.0 0.0 0.00 0.00 0.00 51 1013.8
20260504184003 28 0.0 0.0 0.00 0.00 0.00 50 1013.9
20260504183503 28 0.0 0.0 0.00 0.00 0.00 50 1013.9
20260504183005 28 0.0 0.0 0.00 0.00 0.00 51 1013.8
20260504182506 28 0.0 0.0 0.00 0.00 0.00 53 1014.0
20260504182003 28 0.0 0.0 0.00 0.00 0.00 51 1014.0
20260504181504 28 0.0 0.0 0.00 0.00 0.00 50 1014.1
20260504181003 28 0.0 0.0 0.00 0.00 0.00 51 1014.1
20260504180504 28 0.0 0.0 0.00 0.00 0.00 52 1014.1
20260504180007 28 0.0 0.0 0.00 0.00 0.00 52 1014.0
20260504175504 28 0.0 0.0 0.00 0.00 0.00 52 1014.2
20260504175006 27 0.0 0.0 0.00 0.00 0.00 52 1014.4
20260504174504 27 0.0 0.0 0.00 0.00 0.00 53 1014.5
20260504174002 27 0.0 0.0 0.00 0.00 0.00 53 1014.6
20260504173506 27 0.0 0.0 0.00 0.00 0.00 54 1014.6
20260504173003 27 0.0 0.0 0.00 0.00 0.00 53 1014.7
20260504172502 27 0.0 0.0 0.00 0.00 0.00 53 1014.4
20260504172003 27 0.0 0.0 0.00 0.00 0.00 53 1014.9
20260504171503 27 0.0 0.0 0.00 0.00 0.00 53 1014.9
20260504171003 27 0.0 0.0 0.00 0.00 0.00 52 1015.3
20260504170504 27 0.0 0.0 0.00 0.00 0.00 52 1015.1
20260504151006 24 0.0 0.0 0.00 0.00 0.00 61 1015.6
20260504150504 24 0.0 0.0 0.00 0.00 0.00 60 1015.7
20260504140503 21 0.0 0.0 0.00 0.00 0.00 65 1015.6
20260504130504 17 0.0 0.0 0.00 0.00 0.00 73 1015.5
20260504110506 15 0.0 0.0 0.00 0.00 0.00 76 1015.3
20260504100507 15 0.0 0.0 0.00 0.00 0.00 76 1015.6
20260504082007 15 0.0 0.0 0.00 0.00 0.00 73 1016.3
20260504081520 15 0.0 0.0 0.00 0.00 0.00 74 1016.2
20260504081007 15 0.0 0.0 0.00 0.00 0.00 74 1016.2
20260504080505 15 0.0 0.0 0.00 0.00 0.00 74 1016.3
20260504050506 17 0.0 0.0 0.00 0.00 0.00 66 1018.3
20260504050020 17 0.0 0.0 0.00 0.00 0.00 66 1018.3
20260504045506 17 0.0 0.0 0.00 0.00 0.00 66 1018.3
20260504045012 17 0.0 0.0 0.00 0.00 0.00 65 1018.3
20260504044535 17 0.0 0.0 0.00 0.00 0.00 64 1018.3
20260504044008 17 0.0 0.0 0.00 0.00 0.00 64 1018.4
20260504043509 17 0.0 0.0 0.00 0.00 0.00 63 1018.3
20260504043028 18 0.0 0.0 0.00 0.00 0.00 63 1018.4
20260504042511 18 0.0 0.0 0.00 0.00 0.00 62 1018.5
20260504042012 18 0.0 0.0 0.00 0.00 0.00 62 1018.5
20260504041512 18 0.0 0.0 0.00 0.00 0.00 62 1018.6
20260504041004 18 0.0 0.0 0.00 0.00 0.00 61 1018.6
20260504040507 18 0.0 0.0 0.00 0.00 0.00 61 1018.6
20260504040016 18 0.0 0.0 0.00 0.00 0.00 60 1018.6
20260504035511 18 0.0 0.0 0.00 0.00 0.00 60 1018.5
20260504035006 18 0.0 0.0 0.00 0.00 0.00 60 1018.4
20260504034531 18 0.0 0.0 0.00 0.00 0.00 59 1018.3
20260504034006 19 0.0 0.0 0.00 0.00 0.00 58 1018.4
20260504033513 19 0.0 0.0 0.00 0.00 0.00 58 1018.4
20260504033036 19 0.0 0.0 0.00 0.00 0.00 58 1018.5
20260504032508 19 0.0 0.0 0.00 0.00 0.00 57 1018.6
20260504032010 19 0.0 0.0 0.00 0.00 0.00 57 1018.5
20260504031527 20 0.0 0.0 0.00 0.00 0.00 57 1018.4
20260504031008 20 0.0 0.0 0.00 0.00 0.00 57 1018.3
20260504030511 20 0.0 0.0 0.00 0.00 0.00 57 1018.2
20260504030025 20 0.0 0.0 0.00 0.00 0.00 55 1018.3
20260504025505 20 0.0 0.0 0.00 0.00 0.00 55 1018.3
20260504025005 20 0.0 0.0 0.00 0.00 0.00 55 1018.2
20260504024521 20 0.0 0.0 0.00 0.00 0.00 54 1018.2
20260504024007 20 0.0 0.0 0.00 0.00 0.00 54 1018.1
20260504023502 20 0.0 0.0 0.00 0.00 0.00 54 1018.1
20260504023005 20 0.0 0.0 0.00 0.00 0.00 53 1017.9
20260504022504 20 0.0 0.0 0.00 0.00 0.00 53 1017.9
20260504022004 21 0.0 0.0 0.00 0.00 0.00 52 1017.9
20260504021504 21 0.0 0.0 0.00 0.00 0.00 52 1018.0
20260504021003 21 0.0 0.0 0.00 0.00 0.00 51 1017.9
20260504020503 21 0.0 0.0 0.00 0.00 0.00 51 1017.9
20260504020015 21 0.0 0.0 0.00 0.00 0.00 51 1017.9
20260504015505 21 0.0 0.0 0.00 0.00 0.00 50 1017.9
20260504015007 21 0.0 0.0 0.00 0.00 0.00 49 1017.7
20260504014518 21 0.0 0.0 0.00 0.00 0.00 49 1017.7
20260504014010 21 0.0 0.0 0.00 0.00 0.00 49 1017.7
20260504013507 22 0.0 0.0 0.00 0.00 0.00 48 1017.7
20260504013029 22 0.0 0.0 0.00 0.00 0.00 48 1017.6
20260504012503 22 0.0 0.0 0.00 0.00 0.00 48 1017.7
20260504012002 22 0.0 0.0 0.00 0.00 0.00 47 1017.7
20260504011502 22 0.0 0.0 0.00 0.00 0.00 47 1017.6
20260504011007 22 0.0 0.0 0.00 0.00 0.00 46 1017.7
20260504010503 22 0.0 0.0 0.00 0.00 0.00 46 1017.5
20260504010009 22 0.0 0.0 0.00 0.00 0.00 45 1017.5
20260504005503 23 0.0 0.0 0.00 0.00 0.00 44 1017.5
20260504005006 23 0.0 0.0 0.00 0.00 0.00 44 1017.5
20260504004513 23 0.0 0.0 0.00 0.00 0.00 43 1017.6
20260504004005 23 0.0 0.0 0.00 0.00 0.00 44 1017.6
20260504003507 23 0.0 0.0 0.00 0.00 0.00 42 1017.6
20260504003020 23 0.0 0.0 0.00 0.00 0.00 42 1017.7
20260504002508 24 0.0 0.0 0.00 0.00 0.00 42 1017.5
20260504002009 24 0.0 0.0 0.00 0.00 0.00 41 1017.6
20260504001524 24 0.0 0.0 0.00 0.00 0.00 40 1017.6
20260504001008 25 0.0 0.0 0.00 0.00 0.00 40 1017.6
20260504000508 25 0.0 0.0 0.00 0.00 0.00 40 1017.6
20260504000026 25 0.0 0.0 0.00 0.00 0.00 39 1017.5
20260503235510 26 0.0 0.0 0.00 0.00 0.00 39 1017.5
20260503235003 26 0.0 0.0 0.00 0.00 0.00 37 1017.5
20260503234510 26 0.0 0.0 0.00 0.00 0.00 36 1017.6
20260503234011 26 0.0 0.0 0.00 0.00 0.00 34 1017.7
20260503233503 26 0.0 0.0 0.00 0.00 0.00 34 1017.6
20260503233016 26 0.0 0.0 0.00 0.00 0.00 33 1017.6
20260503232510 26 0.0 0.0 0.00 0.00 0.00 34 1017.6
20260503232011 26 0.0 0.0 0.00 0.00 0.00 34 1017.8
20260503231522 26 0.0 0.0 0.00 0.00 0.00 32 1017.9
20260503231009 26 0.0 0.0 0.00 0.00 0.00 30 1017.9
20260503230508 26 0.0 0.0 0.00 0.00 0.00 31 1017.9
20260503230023 26 0.0 0.0 0.00 0.00 0.00 31 1017.8
20260503225507 26 0.0 0.0 0.00 0.00 0.00 31 1018.0
20260503225003 26 0.0 0.0 0.00 0.00 0.00 31 1017.9
20260503224507 26 0.0 0.0 0.00 0.00 0.00 31 1017.9
20260503224005 27 0.0 0.0 0.00 0.00 0.00 30 1018.1
20260503223507 27 0.0 0.0 0.00 0.00 0.00 29 1018.2
20260503223012 27 0.0 0.0 0.00 0.00 0.00 31 1018.2
20260503222511 27 0.0 0.0 0.00 0.00 0.00 30 1018.2
20260503222013 27 0.0 0.0 0.00 0.00 0.00 32 1018.3
20260503221528 27 0.0 0.0 0.00 0.00 0.00 31 1018.3
20260503221008 27 0.0 0.0 0.00 0.00 0.00 30 1018.5
20260503220508 27 0.0 0.0 0.00 0.00 0.00 32 1018.5
20260503220030 27 0.0 0.0 0.00 0.00 0.00 31 1018.5
20260503215510 27 0.0 0.0 0.00 0.00 0.00 31 1018.5
20260503215013 27 0.0 0.0 0.00 0.00 0.00 29 1018.5
20260503214528 27 0.0 0.0 0.00 0.00 0.00 30 1018.6
20260503214015 27 0.0 0.0 0.00 0.00 0.00 30 1018.6
20260503213510 27 0.0 0.0 0.00 0.00 0.00 30 1018.7
20260503213025 28 0.0 0.0 0.00 0.00 0.00 29 1018.7
20260503212506 28 0.0 0.0 0.00 0.00 0.00 31 1019.0
20260503212006 28 0.0 0.0 0.00 0.00 0.00 30 1019.2
20260503211518 28 0.0 0.0 0.00 0.00 0.00 31 1019.1
20260503211009 28 0.0 0.0 0.00 0.00 0.00 32 1019.1
20260503210506 27 0.0 0.0 0.00 0.00 0.00 32 1019.3
20260503210021 27 0.0 0.0 0.00 0.00 0.00 31 1019.3
20260503205507 27 0.0 0.0 0.00 0.00 0.00 32 1019.3
20260503205012 28 0.0 0.0 0.00 0.00 0.00 30 1019.4
20260503204526 28 0.0 0.0 0.00 0.00 0.00 32 1019.5
20260503204012 28 0.0 0.0 0.00 0.00 0.00 31 1019.6
20260503203508 28 0.0 0.0 0.00 0.00 0.00 33 1019.7
20260503203034 28 0.0 0.0 0.00 0.00 0.00 32 1019.6
20260503202509 28 0.0 0.0 0.00 0.00 0.00 31 1019.9
20260503202013 27 0.0 0.0 0.00 0.00 0.00 31 1019.9
20260503201525 27 0.0 0.0 0.00 0.00 0.00 33 1020.0
20260503201008 27 0.0 0.0 0.00 0.00 0.00 31 1020.2
20260503200507 27 0.0 0.0 0.00 0.00 0.00 33 1020.2
20260503200027 27 0.0 0.0 0.00 0.00 0.00 30 1020.3
20260503195506 27 0.0 0.0 0.00 0.00 0.00 31 1020.5
20260503195006 27 0.0 0.0 0.00 0.00 0.00 31 1020.6
20260503194528 27 0.0 0.0 0.00 0.00 0.00 32 1020.6
20260503194008 27 0.0 0.0 0.00 0.00 0.00 33 1020.6
20260503193515 27 0.0 0.0 0.00 0.00 0.00 31 1020.7
20260503193026 27 0.0 0.0 0.00 0.00 0.00 33 1020.8
20260503192509 27 0.0 0.0 0.00 0.00 0.00 31 1020.8
20260503192002 27 0.0 0.0 0.00 0.00 0.00 33 1020.9
20260503191510 27 0.0 0.0 0.00 0.00 0.00 31 1020.9
20260503191006 27 0.0 0.0 0.00 0.00 0.00 31 1021.1
20260503190507 27 0.0 0.0 0.00 0.00 0.00 33 1021.1